Weather History for PAGY - November, 2013

Change the Weather History Date:

Saturday, November 2, 2013

  Actual Average Record
Temperature  
Mean Temperature 38 °F -  
Max Temperature 43 °F 39 °F 53 °F (1969)
Min Temperature 32 °F 31 °F 16 °F (1984)
Degree Days  
Heating Degree Days 28    
Moisture  
Dew Point 36 °F    
Average Humidity 91    
Maximum Humidity 100    
Minimum Humidity 76    
Precipitation  
Precipitation 0.01 in - - ()
Sea Level Pressure  
Sea Level Pressure 30.10 in    
Wind  
Wind Speed 1 mph (NE)    
Max Wind Speed 5 mph    
Max Gust Speed -    
Visibility 9 miles    
Events Rain    
Averages and records for this station are not official NWS values.
T = Trace of Precipitation, MM = Missing Value Source: NWS Daily Summary

Daily Weather History Graph

Daily Weather History Graph

Search for Another Location

Airport or City:

Trip Planner

Search our weather history database for the weather conditions in past years. The results will help you decide how hot, cold, wet, or windy it might be!

Date:

Astronomy

Nov. 02, 2013 Rise Set
Actual Time 8:24 AM AKDT 5:03 PM AKDT
Civil Twilight 7:40 AM AKDT 5:48 PM AKDT
Nautical Twilight 6:51 AM AKDT 6:37 PM AKDT
Astronomical Twilight 6:03 AM AKDT 7:24 PM AKDT
Moon 7:22 AM AKDT (11/2) 4:43 PM AKDT (11/2)
Length of Visible Light 10h 08m
Length of Day
8h 39m
Waning Crescent, 1% of the Moon is Illuminated
Nov 2
Waning Crescent
Nov 3
New
Nov 9
First Quarter
Nov 17
Full
Nov 25
Last Quarter

Hourly Weather History & Observations

Time (AKDT) Temp. Windchill Dew Point Humidity Pressure Visibility Wind Dir Wind Speed Gust Speed Precip Events Conditions
12:02 AM 39.2 °F 37.0 °F 37.4 °F 93% 30.09 in 9.0 mi NE 3.5 mph - 0.00 in Rain Light Rain
12:53 AM 39.9 °F - 37.0 °F 89% 30.09 in 10.0 mi Calm Calm - 0.00 in   Overcast
1:53 AM 39.9 °F - 37.0 °F 89% 30.10 in 10.0 mi Calm Calm - N/A   Overcast
2:53 AM 39.9 °F - 37.9 °F 93% 30.10 in 10.0 mi Calm Calm - N/A   Overcast
3:53 AM 39.9 °F - 37.9 °F 93% 30.09 in 10.0 mi Calm Calm - N/A   Overcast
4:53 AM 39.9 °F - 37.9 °F 93% 30.09 in 10.0 mi Calm Calm - N/A   Overcast
5:53 AM 39.9 °F - 37.9 °F 93% 30.08 in 10.0 mi Calm Calm - N/A   Overcast
6:32 AM 39.2 °F - 37.4 °F 93% 30.09 in 8.0 mi Calm Calm - N/A   Overcast
6:53 AM 39.9 °F - 37.9 °F 93% 30.10 in 6.0 mi Calm Calm - 0.01 in Rain Light Rain
7:07 AM 39.2 °F - 37.4 °F 93% 30.10 in 9.0 mi Calm Calm - 0.00 in Rain Light Rain
7:53 AM 39.9 °F - 37.9 °F 93% 30.10 in 10.0 mi Calm Calm - 0.00 in   Overcast
8:51 AM 39.2 °F - 37.4 °F 93% 30.11 in 9.0 mi Calm Calm - 0.00 in   Overcast
8:53 AM 39.9 °F - 37.9 °F 93% 30.11 in 9.0 mi Calm Calm - 0.00 in   Overcast
9:16 AM 39.2 °F - 37.4 °F 93% 30.11 in 1.8 mi Calm Calm - N/A   Overcast
9:25 AM 39.2 °F - 37.4 °F 93% 30.10 in 1.2 mi Calm Calm - N/A   Overcast
9:34 AM 39.2 °F - 37.4 °F 93% 30.11 in 1.8 mi Calm Calm - N/A   Overcast
9:37 AM 39.2 °F - 37.4 °F 93% 30.11 in 3.0 mi Calm Calm - N/A   Overcast
9:53 AM 39.9 °F - 37.9 °F 93% 30.11 in 10.0 mi Calm Calm - N/A   Overcast
10:30 AM 39.2 °F - 39.2 °F 100% 30.10 in 10.0 mi Calm Calm - N/A   Overcast
10:53 AM 39.9 °F - 39.0 °F 97% 30.10 in 10.0 mi Calm Calm - N/A   Overcast
11:53 AM 42.1 °F - 39.9 °F 92% 30.10 in 10.0 mi Calm Calm - N/A   Mostly Cloudy
12:53 PM 42.1 °F - 37.9 °F 85% 30.10 in 10.0 mi Calm Calm - N/A   Clear
1:53 PM 42.1 °F - 37.0 °F 82% 30.10 in 10.0 mi Calm Calm - N/A   Clear
2:53 PM 43.0 °F - 36.0 °F 76% 30.09 in 10.0 mi Calm Calm - N/A   Clear
3:53 PM 39.9 °F - 34.0 °F 79% 30.09 in 10.0 mi Calm Calm - N/A   Clear
4:53 PM 37.9 °F - 33.1 °F 83% 30.10 in 10.0 mi Calm Calm - N/A   Clear
5:53 PM 36.0 °F - 33.1 °F 89% 30.10 in 10.0 mi Calm Calm - N/A   Clear
6:53 PM 35.1 °F 32.2 °F 30.9 °F 85% 30.10 in 10.0 mi NNE 3.5 mph - N/A   Mostly Cloudy
7:17 PM 33.8 °F 29.6 °F 30.2 °F 87% 30.09 in 10.0 mi NE 4.6 mph - N/A   Mostly Cloudy
7:53 PM 34.0 °F - 32.0 °F 92% 30.09 in 10.0 mi Calm Calm - N/A   Overcast
8:15 PM 33.8 °F - 32.0 °F 93% 30.09 in 10.0 mi Calm Calm - N/A   Scattered Clouds
8:53 PM 33.1 °F - 30.9 °F 92% 30.09 in 8.0 mi Calm Calm - N/A   Mostly Cloudy
9:53 PM 33.1 °F 30.0 °F 30.0 °F 89% 30.10 in 10.0 mi NE 3.5 mph - N/A   Overcast
10:53 PM 32.0 °F - 30.0 °F 92% 30.10 in 10.0 mi Calm Calm - N/A   Overcast
11:13 PM 32.0 °F - 30.2 °F 93% 30.10 in 10.0 mi Calm Calm - N/A   Scattered Clouds
11:53 PM 32.0 °F - 28.9 °F 88% 30.10 in 10.0 mi Calm Calm - N/A   Mostly Cloudy